Home   Weather   Niš   Past weeks

Flag for Serbia Past Weather in Niš, Serbia — Yesterday and Last 2 Weeks

Now
48 °F

Sunny.


Feels Like: 48 °F
Forecast: 30 / 53 °F
Wind: No wind

Location: Nis Airport

Current Time: Dec 10, 2016 at 4:03:31 pm

Latest Report: Dec 10, 2016 at 3:30 pm


Visibility: 10 mi

Pressure: 30.30 "Hg

Humidity: 40%

Dew Point: 25 °F

Location of NišLocation

Past Weather in Niš — Graph

°F

Niš Temperature Yesterday

Maximum temperature yesterday: 45 °F (at 12:00 pm)
Minimum temperature yesterday: 25 °F (at 1:00 am)
Average temperature yesterday: 32 °F

High & Low Weather Summary for the Past Weeks

 TemperatureHumidityPressure
High61 °F (Nov 27, 1:00 pm)100% (Nov 27, 6:30 am)30.77 "Hg (Nov 27, 6:30 am)
Low18 °F (Dec 4, 3:30 am)40% (Dec 10, 12:30 pm)29.83 "Hg (Dec 2, 7:00 am)
Average35 °F75%30.29 "Hg
* Reported Nov 25 2:00 pm — Dec 10 2:30 pm, Niš, Weather by CustomWeather, © 2016

Note: Actual official high and low records may vary slightly from our data, if they occured in-between our weather recording intervals... More about our weather records

Advertising

Niš Weather History for the Previous 24 Hours

Scroll right to see more
 ConditionsComfort  
Time TempWeatherWind HumidityBarometerVisibility
2:30 pm
Sat, Dec 10
50 °FClear.3 mph40%30.33 "Hg5 mi
2:00 pm48 °FClear.2 mph43%30.33 "Hg4 mi
1:30 pm48 °FClear.2 mph43%30.33 "Hg4 mi
1:00 pm48 °FPassing clouds.2 mph40%30.36 "Hg4 mi
12:30 pm48 °FPassing clouds.1 mph40%30.36 "Hg4 mi
12:00 pm45 °FPassing clouds.2 mph49%30.36 "Hg4 mi
11:30 am41 °FPassing clouds.2 mph57%30.39 "Hg4 mi
11:00 am41 °FPassing clouds.2 mph57%30.39 "Hg4 mi
10:30 am37 °FPassing clouds.2 mph65%30.39 "Hg4 mi
10:00 am36 °FScattered clouds.2 mph70%30.42 "Hg4 mi
9:30 am34 °FFog.1 mph70%30.42 "Hg3 mi
9:00 am32 °FIce fog.2 mph75%30.42 "Hg2 mi
8:30 am32 °FIce fog.No wind75%30.42 "Hg3 mi
8:00 am28 °FIce fog.2 mph80%30.42 "Hg3 mi
7:30 am25 °FIce fog.1 mph86%30.39 "Hg3 mi
7:00 am27 °FIce fog.2 mph80%30.39 "Hg3 mi
6:30 am27 °FPassing clouds.2 mph80%30.39 "Hg4 mi
6:00 am25 °FIce fog.1 mph80%30.39 "Hg3 mi
5:30 am21 °FIce fog.1 mph86%30.39 "Hg3 mi
5:00 am25 °FIce fog.1 mph80%30.39 "Hg3 mi
4:30 am25 °FIce fog.1 mph80%30.39 "Hg3 mi
4:00 am25 °FIce fog.3 mph80%30.39 "Hg2 mi
3:30 am23 °FIce fog.2 mph80%30.39 "Hg2 mi
3:00 am25 °FIce fog.3 mph80%30.39 "Hg3 mi
2:30 am23 °FIce fog.1 mph86%30.39 "Hg2 mi
2:00 am25 °FIce fog.1 mph80%30.39 "Hg2 mi
1:30 am27 °FIce fog.2 mph80%30.39 "Hg2 mi
1:00 am27 °FIce fog.3 mph80%30.42 "Hg2 mi
12:30 am27 °FIce fog.1 mph80%30.42 "Hg2 mi
12:00 am25 °FIce fog.2 mph86%30.42 "Hg2 mi
11:30 pm
Fri, Dec 9
25 °FIce fog.3 mph80%30.42 "Hg2 mi
11:00 pm28 °FIce fog.6 mph74%30.42 "Hg2 mi
10:30 pm27 °FIce fog.3 mph80%30.45 "Hg2 mi
10:00 pm25 °FIce fog.2 mph86%30.42 "Hg2 mi
9:30 pm28 °FIce fog.2 mph74%30.42 "Hg2 mi
9:00 pm28 °FIce fog.5 mph74%30.42 "Hg2 mi
8:30 pm28 °FIce fog.2 mph74%30.42 "Hg1 mi
8:00 pm28 °FIce fog.No wind69%30.42 "Hg1 mi
7:30 pm30 °FIce fog.2 mph69%30.42 "Hg1 mi
7:00 pm32 °FIce fog.3 mph69%30.42 "Hg2 mi
6:30 pm30 °FIce fog.2 mph69%30.42 "Hg2 mi
6:00 pm28 °FSleet. Ice fog.No wind74%30.42 "Hg3 mi
5:30 pm34 °FSleet. Fog.1 mph60%30.39 "Hg3 mi
5:00 pm36 °FSleet. Clear.2 mph60%30.42 "Hg4 mi
4:30 pm37 °FSleet. Clear.3 mph56%30.39 "Hg5 mi
4:00 pm39 °FSleet. Clear.1 mph52%30.39 "Hg5 mi
Weather by CustomWeather, © 2016

See weather overviewHow to use our weather pages